Regional Weather Roundup
Issued by NWS Sterling, VA

Home | Current Version | Previous Version | Text Only | Print | Product List | Glossary Off
Versions: 1 2 3 4 5 6 7 8 9 10 11 12 13 14 15 16 17 18 19 20 21 22 23 24 25 26 27 28 29 30 31 32 33 34 35 36 37 38 39 40 41 42 43 44 45 46 47 48 49

000
ASUS41 KLWX 300610
RWRLWX

REGIONAL WEATHER ROUNDUP
NATIONAL WEATHER SERVICE BALTIMORE MD/WASHINGTON DC
200 AM EDT THU JUL 30 2015

Note: "FAIR" indicates few or no clouds below 12,000 feet
with no significant weather and/or obstructions to visibility.
 TC=TEMPERATURE CELSIUS

 * =Non NWS site. Station does not report precipitation (e.g. rain,
    snow, etc.), thunder, or fog.

DCZ001-MDZ009-015-VAZ040>042-051-053>054-300700-
WASHINGTON METRO

CITY           SKY/WX    TMP DP  RH WIND       PRES   REMARKS
WASHINGTON NAT MOCLDY    82  74  76 S7        29.95F
DULLES         MOCLDY    77  71  82 S6        29.95F
ANDREWS AFB    PTCLDY    76  73  91 S8        29.95F
FT BELVOIR     CLEAR     78  74  87 SE3       29.95F
QUANTICO       CLOUDY    80  73  79 SW7       29.95F
COLLEGE PARK*  CLOUDY    81  73  78 CALM      29.95S
LEESBURG*      CLEAR     77  73  88 S10       29.96S
MANASSAS*      PTCLDY    75  73  94 CALM      29.95F
GAITHERSBURG*  CLOUDY    79  72  78 S5        29.99F

$$

MDZ006>007-011-014-300700-
BALTIMORE METRO

CITY           SKY/WX    TMP DP  RH WIND       PRES   REMARKS
BWI AIRPORT    PTCLDY    77  74  90 SW3       29.94F
MD SCIENCE CTR   N/A     78  74  87 MISG      29.94F
MARTIN STATE   MOCLDY    81  77  89 S6        29.96S
ANNAPOLIS      CLOUDY    79  71  76 S7        29.94F
FORT MEADE*    MOCLDY    72  70  94 CALM      29.97F

$$

MDZ012-015-019>023-300700-
MARYLAND EASTERN SHORE

CITY           SKY/WX    TMP DP  RH WIND       PRES   REMARKS
OCEAN CITY     CLEAR     78  73  84 SW12      29.98S
SALISBURY      CLEAR     75  72  90 S8        29.98S
BAY BRIDGE AP*   N/A     81  72  74 S9        29.95F
CAMBRIDGE*     CLEAR     79  72  78 S6        29.96S
EASTON*        CLEAR     80  75  85 S6        29.99F

$$

MDZ017>025-300700-
SOUTHERN MARYLAND

CITY           SKY/WX    TMP DP  RH WIND       PRES   REMARKS
PATUXENT RIVER CLEAR     78  73  84 S8        29.96F
ST INIGOES     CLEAR     79  72  79 S9        29.96F
LEONARDTOWN*   CLEAR     77  70  78 CALM      29.98F

$$

MDZ003>005-300700-
NORTH CENTRAL MARYLAND

CITY           SKY/WX    TMP DP  RH WIND       PRES   REMARKS
FREDERICK*     PTCLDY    73  72  94 SW6       29.97S
HAGERSTOWN APT PTCLDY    78  73  84 S5        29.94F
WESTMINSTER*   PTCLDY    77  73  88 S5        29.96F

$$

MDZ501>502-300700-
WESTERN MARYLAND

CITY           SKY/WX    TMP DP  RH WIND       PRES   REMARKS
OAKLAND*       MOCLDY    70 N/A N/A SW7       30.08S HAZE
CUMBERLAND*    MOCLDY    75  73  94 CALM      29.99S

$$

VAZ025>031-300700-
SHENANDOAH VALLEY

CITY           SKY/WX    TMP DP  RH WIND       PRES   REMARKS
WINCHESTER*    PTCLDY    77  73  88 S3        29.95F
FRONT ROYAL*   FAIR      75  72  88 S3        29.94F
LURAY*         MOCLDY    79  75  89 SW6       29.97S
NEW MARKET*    CLOUDY    76  74  91 SW3       29.96S
STAUNTON*      MOCLDY    77  73  88 CALM      30.02S
WAYNESBORO*    FAIR      73  71  96 SW3       30.02F

$$

WVZ021-048>050-054>055-300700-
EASTERN WEST VIRGINIA PANHANDLE

CITY           SKY/WX    TMP DP  RH WIND       PRES   REMARKS
MARTINSBURG    PTCLDY    74  73  97 S5        29.94F FOG
PETERSBURG*    PTCLDY   N/A N/A N/A CALM      29.98F HAZE

$$

VAZ036>039-050-300700-
CENTRAL FOOTHILLS

CITY           SKY/WX    TMP DP  RH WIND       PRES   REMARKS
CHARLOTTESVILL CLEAR     76  73  91 S6        29.97F
CULPEPER*      PTCLDY    74  73  95 CALM      29.96F
ORANGE*        CLEAR     75  73  94 S3        29.98S
GORDONSVILLE*  FAIR      73  73 100 SW5       29.96F
WARRENTON*     FAIR      74  74  99 SE3       29.95F

$$

VAZ055>057-300700-
NORTH AND CENTRAL PIEDMONT

CITY           SKY/WX    TMP DP  RH WIND       PRES   REMARKS
FREDERICKSBRG* MOCLDY    77  77 100 CALM      29.95F
STAFFORD*      PTCLDY    74  71  91 CALM      30.00S

$$

NCZ024-NYZ072-PAZ021-071-VAZ022-071-300700-
OTHER REGIONAL OBSERVATIONS

CITY           SKY/WX    TMP DP  RH WIND       PRES   REMARKS
NEW YORK CITY  CLEAR     82  70  66 VRB7      29.96S
PHILADELPHIA   MOCLDY    80  72  76 SW8       29.95S
PITTSBURGH     CLOUDY    79  70  74 SW6       29.94F
ROANOKE        CLEAR     74  72  93 CALM      30.02F
RICHMOND       PTCLDY    77  71  82 S7        29.97F
RALEIGH        PTCLDY    78  70  76 SE6       29.99F

$$

ANZ530>537-300700-
MARINE OBSERVATIONS

STATION/POSITION TIME  TEMP    WIND        PRES
                       AIR SEA DIR/SP/G
                 (UTC) (F)     (DEG/KT/KT) (MB)
THOMAS PT LIGHT  NOT AVBL
BALT KEY BRIDGE  0500   80                   N/A
COVE POINT       0500   79                   N/A
LEWISETTA        0500   78                   N/A

$$




USA.gov is the U.S. government's official web portal to all federal, state and local government web resources and services.